Location: De Greiden
(52.9496°N, 5.9137°E)
Time: 01:44:25
(UTC+00:00)

NOSS 3-1 (C) - Pass Details

Date: 24 January 2021
Orbit: 723 x 1485 km, 63.3° (Epoch: 22 February)

Event Time Altitude Azimuth Distance (km) Brightness Sun altitude
Rises 18:11:01 0° 313° (NW) 3,866 7.2 -18.4°
Reaches altitude 10° 18:13:30 10° 310° (NW) 3,010 6.6 -18.8°
Maximum altitude 18:20:45 66° 231° (SW) 1,379 4.4 -19.9°
Drops below altitude 10° 18:29:16 10° 152° (SSE) 3,503 6.1 -21.1°
Sets 18:32:22 0° 149° (SSE) 4,535 6.7 -21.6°
